ニオワイズ彗星

C/2015 X8 ( NEOWISE )

English version
Home page
Updated on May 26, 2021

---------------------------------------------------------------------

・ プロフィール

発見日 2015年12月14日
発見光度 16等
発見者 Near-Earth Object Wide-field Infrared Survey Explorer

・ 写真集

・ 軌道要素

Epoch 2015 Oct. 25.0 TT = JDT 2457320.5
T 2015 Oct. 23.14302 TT                                 MPCW
q   1.1903732            (2000.0)            P               Q
n   0.01131390     Peri.   20.41158     -0.98068923     +0.17820852
a  19.6514480      Node   191.10807     +0.06154334     +0.67221157
e   0.9394257      Incl.  155.28154     +0.18563689     +0.71859121
P  87.11
From 104 observations 2015 Dec. 14-2017 Oct. 27, mean residual 0".7.

・ 星図

・ 光度変化

        m1 = 10.0 + 5 logΔ + 20.0 log r

---------------------------------------------------------------------

軌道要素はM.P.E.C. 2017-V13に掲載されたものです。
星図はステラナビゲータ Ver.8 (アストロアーツ) で作成したものです。
光度グラフはComet for Windowsで作成したものです。

---------------------------------------------------------------------

Copyright(C) Seiichi Yoshida (comet@aerith.net). All rights reserved.